UAE929 OMDB-HECA

Flight info

Callsign UAE929
Flight time 3h 40m
Altitude 34000
Route ANVIX R401 GIDIS G783 ELUDA/N0495F380 G783 RIGIL/N0481F320 G783 TANSU/N0448F280 G783 ASNUR L883 PUSON/N0493F380 L883 KITUB Y511 ELONU G799 PMA V10 PEGUR/N0492F400 Z712 WEJ L677 CVO
Aircraft A388/J-SADE2E3FGHIJ3J4J5M1RWXY/LB1D1

Departure

Time 2026-05-07 00:58
Airport Dubai International Airport (OMDB)

Arrival

Time 2026-05-07 04:38
Airport Cairo International Airport (HECA)
Time Latitude Longitude Altitude Speed Heading
2026-05-07 00:05 25.24930 55.36227 26 ft 0 kts 211°
2026-05-07 00:38 25.24937 55.36231 32 ft 3 kts 211°
2026-05-07 00:39 25.24955 55.36243 28 ft 3 kts 211°
2026-05-07 00:39 25.24973 55.36255 32 ft 3 kts 211°
2026-05-07 00:39 25.24991 55.36267 32 ft 2 kts 211°
2026-05-07 00:39 25.25004 55.36278 32 ft 3 kts 253°
2026-05-07 00:40 25.25003 55.36294 32 ft 3 kts 307°
2026-05-07 00:40 25.24989 55.36312 32 ft 3 kts 308°
2026-05-07 00:40 25.24981 55.36325 32 ft 1 kts 300°
2026-05-07 00:40 25.24980 55.36328 32 ft 0 kts 300°
2026-05-07 00:47 25.24989 55.36310 32 ft 6 kts 300°
2026-05-07 00:47 25.25018 55.36255 31 ft 11 kts 300°
2026-05-07 00:48 25.25066 55.36172 26 ft 15 kts 303°
2026-05-07 00:48 25.25135 55.36073 26 ft 18 kts 320°
2026-05-07 00:48 25.25247 55.35996 26 ft 19 kts 328°
2026-05-07 00:48 25.25324 55.35900 26 ft 18 kts 302°
2026-05-07 00:49 25.25393 55.35776 30 ft 20 kts 301°
2026-05-07 00:49 25.25455 55.35664 31 ft 16 kts 301°
2026-05-07 00:49 25.25519 55.35549 31 ft 19 kts 302°
2026-05-07 00:49 25.25594 55.35418 29 ft 21 kts 302°
2026-05-07 00:50 25.25666 55.35292 31 ft 19 kts 302°
2026-05-07 00:50 25.25704 55.35226 30 ft 8 kts 314°
2026-05-07 00:50 25.25763 55.35214 31 ft 10 kts 20°
2026-05-07 00:50 25.25838 55.35260 29 ft 14 kts 31°
2026-05-07 00:51 25.25930 55.35323 26 ft 17 kts 32°
2026-05-07 00:51 25.26003 55.35426 27 ft 18 kts 76°
2026-05-07 00:51 25.25985 55.35559 27 ft 18 kts 117°
2026-05-07 00:51 25.25921 55.35678 27 ft 19 kts 121°
2026-05-07 00:52 25.25852 55.35801 27 ft 19 kts 122°
2026-05-07 00:52 25.25781 55.35924 27 ft 19 kts 122°
2026-05-07 00:52 25.25710 55.36050 27 ft 19 kts 122°
2026-05-07 00:52 25.25639 55.36177 28 ft 19 kts 121°
2026-05-07 00:53 25.25567 55.36306 27 ft 20 kts 121°
2026-05-07 00:53 25.25494 55.36437 27 ft 20 kts 122°
2026-05-07 00:53 25.25420 55.36568 27 ft 20 kts 122°
2026-05-07 00:53 25.25344 55.36702 26 ft 21 kts 122°
2026-05-07 00:54 25.25268 55.36836 27 ft 20 kts 121°
2026-05-07 00:54 25.25194 55.36970 27 ft 20 kts 121°
2026-05-07 00:54 25.25120 55.37102 28 ft 20 kts 121°
2026-05-07 00:54 25.25047 55.37232 28 ft 20 kts 122°
2026-05-07 00:55 25.24974 55.37362 29 ft 20 kts 122°
2026-05-07 00:55 25.24900 55.37493 28 ft 20 kts 122°
2026-05-07 00:55 25.24824 55.37627 28 ft 21 kts 122°
2026-05-07 00:55 25.24749 55.37760 28 ft 21 kts 122°
2026-05-07 00:56 25.24673 55.37895 27 ft 20 kts 122°
2026-05-07 00:56 25.24621 55.37989 28 ft 8 kts 112°
2026-05-07 00:56 25.24632 55.38041 28 ft 8 kts 45°
2026-05-07 00:56 25.24683 55.38084 30 ft 10 kts 35°
2026-05-07 00:57 25.24741 55.38114 31 ft 2 kts 349°
2026-05-07 00:57 25.24753 55.38107 31 ft 4 kts 319°
2026-05-07 00:57 25.24791 55.38053 30 ft 13 kts 304°
2026-05-07 00:57 25.24882 55.37891 31 ft 55 kts 301°
2026-05-07 00:58 25.25091 55.37506 32 ft 115 kts 301°
2026-05-07 00:58 25.25638 55.36512 35 ft 181 kts 300°
2026-05-07 00:58 25.26303 55.35290 634 ft 183 kts 300°
2026-05-07 00:58 25.26939 55.34130 1501 ft 172 kts 302°
2026-05-07 00:59 25.28277 55.31935 2505 ft 181 kts 302°
2026-05-07 00:59 25.28959 55.30737 2828 ft 187 kts 300°
2026-05-07 00:59 25.29426 55.29393 3119 ft 190 kts 272°
2026-05-07 01:00 25.29120 55.27996 3471 ft 190 kts 241°
2026-05-07 01:00 25.28467 55.26713 3690 ft 199 kts 242°
2026-05-07 01:00 25.27824 55.25343 3978 ft 200 kts 244°
2026-05-07 01:00 25.27213 55.23961 4309 ft 200 kts 245°
2026-05-07 01:01 25.26614 55.22563 4620 ft 201 kts 245°
2026-05-07 01:01 25.26017 55.21155 4919 ft 203 kts 245°
2026-05-07 01:01 25.25410 55.19720 5012 ft 216 kts 245°
2026-05-07 01:01 25.24698 55.18167 5246 ft 235 kts 234°
2026-05-07 01:02 25.23422 55.17017 5801 ft 243 kts 203°
2026-05-07 01:02 25.21760 55.16723 6529 ft 246 kts 178°
2026-05-07 01:02 25.20010 55.16909 6960 ft 261 kts 168°
2026-05-07 01:02 25.18352 55.17797 7468 ft 273 kts 140°
2026-05-07 01:03 25.17061 55.19425 7769 ft 291 kts 123°
2026-05-07 01:03 25.16035 55.21367 8427 ft 293 kts 117°
2026-05-07 01:03 25.15082 55.23355 9179 ft 293 kts 117°
2026-05-07 01:03 25.13973 55.25253 9865 ft 297 kts 133°
2026-05-07 01:04 25.12255 55.26599 10244 ft 315 kts 155°
2026-05-07 01:04 25.10054 55.27154 10412 ft 337 kts 175°
2026-05-07 01:04 25.07674 55.27085 10593 ft 355 kts 183°
2026-05-07 01:04 25.05185 55.26851 11064 ft 361 kts 185°
2026-05-07 01:05 25.02757 55.26099 11634 ft 368 kts 205°
2026-05-07 01:05 25.00626 55.24509 12198 ft 373 kts 218°
2026-05-07 01:05 24.98625 55.22646 12741 ft 378 kts 220°
2026-05-07 01:05 24.96624 55.20739 13304 ft 383 kts 219°
2026-05-07 01:06 24.94580 55.18819 13856 ft 387 kts 219°
2026-05-07 01:06 24.92519 55.16917 14555 ft 384 kts 218°
2026-05-07 01:06 24.90456 55.15033 15160 ft 385 kts 218°
2026-05-07 01:06 24.88410 55.13176 15752 ft 386 kts 218°
2026-05-07 01:07 24.86330 55.11291 16353 ft 387 kts 218°
2026-05-07 01:07 24.84244 55.09402 16954 ft 388 kts 219°
2026-05-07 01:07 24.82151 55.07508 17541 ft 389 kts 219°
2026-05-07 01:07 24.80050 55.05607 18108 ft 390 kts 219°
2026-05-07 01:08 24.77945 55.03704 18593 ft 392 kts 219°
2026-05-07 01:08 24.75857 55.01818 19050 ft 394 kts 219°
2026-05-07 01:08 24.73736 54.99901 19527 ft 395 kts 219°
2026-05-07 01:08 24.71604 54.97977 19994 ft 396 kts 219°
2026-05-07 01:09 24.69463 54.96045 20426 ft 398 kts 219°
2026-05-07 01:09 24.67314 54.94106 20866 ft 400 kts 219°
2026-05-07 01:09 24.65173 54.92176 21302 ft 402 kts 219°
2026-05-07 01:09 24.63007 54.90224 21733 ft 404 kts 219°
2026-05-07 01:10 24.60827 54.88260 22151 ft 406 kts 219°
2026-05-07 01:10 24.58636 54.86288 22535 ft 409 kts 219°
2026-05-07 01:10 24.56427 54.84300 22968 ft 411 kts 220°
2026-05-07 01:10 24.54214 54.82308 23391 ft 413 kts 220°
2026-05-07 01:11 24.51982 54.80302 23752 ft 414 kts 220°
2026-05-07 01:11 24.49752 54.78297 24135 ft 414 kts 220°
2026-05-07 01:11 24.47521 54.76294 24497 ft 415 kts 220°
2026-05-07 01:11 24.45273 54.74276 24849 ft 417 kts 220°
2026-05-07 01:12 24.43021 54.72254 25200 ft 418 kts 220°
2026-05-07 01:12 24.40785 54.70249 25578 ft 419 kts 220°
2026-05-07 01:12 24.38523 54.68220 25947 ft 421 kts 220°
2026-05-07 01:12 24.36249 54.66183 26327 ft 422 kts 220°
2026-05-07 01:13 24.33970 54.64142 26726 ft 423 kts 220°
2026-05-07 01:13 24.31682 54.62094 27115 ft 424 kts 221°
2026-05-07 01:13 24.29388 54.60041 27547 ft 426 kts 221°
2026-05-07 01:13 24.27114 54.58007 27961 ft 428 kts 221°
2026-05-07 01:14 24.24798 54.55936 28289 ft 432 kts 221°
2026-05-07 01:14 24.22462 54.53849 28762 ft 433 kts 221°
2026-05-07 01:14 24.20122 54.51759 29214 ft 435 kts 221°
2026-05-07 01:14 24.17772 54.49661 29673 ft 437 kts 221°
2026-05-07 01:15 24.15409 54.47552 30059 ft 440 kts 221°
2026-05-07 01:15 24.13023 54.45425 30445 ft 442 kts 221°
2026-05-07 01:15 24.10624 54.43287 30830 ft 445 kts 221°
2026-05-07 01:15 24.08248 54.41170 31211 ft 447 kts 221°
2026-05-07 01:16 24.05814 54.39003 31582 ft 450 kts 221°
2026-05-07 01:16 24.03376 54.36833 31957 ft 453 kts 221°
2026-05-07 01:16 24.00924 54.34652 32324 ft 455 kts 221°
2026-05-07 01:16 23.98457 54.32458 32694 ft 458 kts 221°
2026-05-07 01:17 23.95974 54.30252 33059 ft 460 kts 221°
2026-05-07 01:17 23.93484 54.28040 33423 ft 463 kts 221°
2026-05-07 01:17 23.90968 54.25806 33750 ft 467 kts 221°
2026-05-07 01:18 23.85867 54.21280 33819 ft 475 kts 221°
2026-05-07 01:18 23.80754 54.16752 33818 ft 476 kts 221°
2026-05-07 01:19 23.75603 54.12192 33820 ft 476 kts 221°
2026-05-07 01:19 23.70462 54.07647 33819 ft 476 kts 221°
2026-05-07 01:20 23.65304 54.03090 33817 ft 476 kts 221°
2026-05-07 01:20 23.60189 53.98576 33818 ft 476 kts 221°
2026-05-07 01:21 23.55037 53.94035 33819 ft 476 kts 221°
2026-05-07 01:21 23.49889 53.89502 33816 ft 476 kts 221°
2026-05-07 01:22 23.44735 53.84968 33826 ft 476 kts 220°
2026-05-07 01:22 23.39579 53.80437 33824 ft 476 kts 220°
2026-05-07 01:23 23.34424 53.75912 33817 ft 476 kts 220°
2026-05-07 01:23 23.29272 53.71394 33823 ft 476 kts 220°
2026-05-07 01:24 23.24143 53.66901 33801 ft 476 kts 220°
2026-05-07 01:24 23.18983 53.62384 33812 ft 476 kts 220°
2026-05-07 01:25 23.13808 53.57860 33816 ft 477 kts 220°
2026-05-07 01:25 23.08636 53.53343 33816 ft 478 kts 220°
2026-05-07 01:26 23.03442 53.48811 34084 ft 481 kts 220°
2026-05-07 01:26 23.00844 53.46546 34567 ft 479 kts 220°
2026-05-07 01:26 22.98241 53.44279 35036 ft 478 kts 220°
2026-05-07 01:26 22.95652 53.42024 35494 ft 477 kts 220°
2026-05-07 01:27 22.93065 53.39772 35927 ft 477 kts 220°
2026-05-07 01:27 22.90514 53.37553 36343 ft 477 kts 220°
2026-05-07 01:27 22.87921 53.35297 36685 ft 478 kts 220°
2026-05-07 01:27 22.85320 53.33037 37133 ft 477 kts 220°
2026-05-07 01:28 22.82731 53.30787 37561 ft 476 kts 220°
2026-05-07 01:28 22.80131 53.28529 37789 ft 480 kts 220°
2026-05-07 01:28 22.77535 53.26277 37791 ft 474 kts 220°
2026-05-07 01:29 22.72408 53.21831 37798 ft 473 kts 220°
2026-05-07 01:29 22.67295 53.17400 37812 ft 474 kts 220°
2026-05-07 01:30 22.62146 53.12944 37817 ft 474 kts 220°
2026-05-07 01:30 22.56996 53.08491 37788 ft 474 kts 220°
2026-05-07 01:31 22.51820 53.04019 37809 ft 477 kts 220°
2026-05-07 01:31 22.47495 53.00286 37818 ft 479 kts 220°
2026-05-07 01:32 22.41424 52.95052 37832 ft 480 kts 220°
2026-05-07 01:32 22.37041 52.91278 37832 ft 480 kts 220°
2026-05-07 01:33 22.31841 52.86803 37828 ft 480 kts 220°
2026-05-07 01:33 22.26611 52.82307 37825 ft 479 kts 220°
2026-05-07 01:34 22.21424 52.77851 37808 ft 479 kts 220°
2026-05-07 01:34 22.16209 52.73377 37799 ft 478 kts 220°
2026-05-07 01:35 22.11002 52.68914 37802 ft 477 kts 220°
2026-05-07 01:35 22.05791 52.64452 37780 ft 477 kts 220°
2026-05-07 01:36 22.00629 52.60035 37768 ft 477 kts 219°
2026-05-07 01:36 21.95422 52.55585 37772 ft 477 kts 219°
2026-05-07 01:37 21.90217 52.51140 37791 ft 477 kts 219°
2026-05-07 01:37 21.85033 52.46717 37773 ft 478 kts 219°
2026-05-07 01:38 21.79836 52.42244 37780 ft 479 kts 222°
2026-05-07 01:38 21.75297 52.37019 37795 ft 478 kts 234°
2026-05-07 01:39 21.71828 52.30911 37802 ft 478 kts 244°
2026-05-07 01:39 21.68899 52.24494 37801 ft 479 kts 244°
2026-05-07 01:40 21.65930 52.18075 37801 ft 479 kts 244°
2026-05-07 01:40 21.62961 52.11665 37798 ft 479 kts 244°
2026-05-07 01:41 21.59992 52.05257 37799 ft 479 kts 244°
2026-05-07 01:41 21.57043 51.98896 37806 ft 478 kts 243°
2026-05-07 01:42 21.54079 51.92514 37793 ft 477 kts 243°
2026-05-07 01:42 21.51113 51.86135 37788 ft 477 kts 243°
2026-05-07 01:43 21.48147 51.79763 37799 ft 476 kts 243°
2026-05-07 01:43 21.45875 51.73108 37799 ft 476 kts 257°
2026-05-07 01:44 21.45090 51.66061 37798 ft 477 kts 269°
2026-05-07 01:44 21.45354 51.58928 37795 ft 478 kts 271°
2026-05-07 01:45 21.45612 51.51798 37787 ft 478 kts 271°
2026-05-07 01:45 21.45866 51.44694 37797 ft 479 kts 271°
2026-05-07 01:46 21.46122 51.37542 37796 ft 479 kts 271°
2026-05-07 01:46 21.46377 51.30388 37794 ft 480 kts 271°
2026-05-07 01:47 21.46627 51.23225 37814 ft 480 kts 271°
2026-05-07 01:47 21.46876 51.16073 37806 ft 480 kts 271°
2026-05-07 01:48 21.47121 51.08919 37799 ft 479 kts 271°
2026-05-07 01:48 21.47363 51.01771 37792 ft 479 kts 271°
2026-05-07 01:49 21.47601 50.94648 37795 ft 479 kts 271°
2026-05-07 01:49 21.47836 50.87508 37813 ft 478 kts 270°
2026-05-07 01:50 21.48069 50.80378 37810 ft 477 kts 270°
2026-05-07 01:50 21.48297 50.73255 37798 ft 476 kts 270°
2026-05-07 01:51 21.48522 50.66151 37788 ft 476 kts 270°
2026-05-07 01:51 21.48743 50.59082 37792 ft 475 kts 270°
2026-05-07 01:52 21.48962 50.51981 37790 ft 475 kts 270°
2026-05-07 01:52 21.49179 50.44880 37789 ft 475 kts 270°
2026-05-07 01:53 21.49391 50.37788 37797 ft 475 kts 270°
2026-05-07 01:53 21.49600 50.30726 37797 ft 476 kts 270°
2026-05-07 01:54 21.49808 50.23615 37807 ft 476 kts 270°
2026-05-07 01:54 21.50012 50.16506 37830 ft 476 kts 270°
2026-05-07 01:55 21.50652 50.09429 37835 ft 477 kts 278°
2026-05-07 01:55 21.52354 50.02567 37811 ft 479 kts 287°
2026-05-07 01:56 21.54813 49.95918 37807 ft 478 kts 289°
2026-05-07 01:56 21.57278 49.89266 37801 ft 477 kts 289°
2026-05-07 01:57 21.59731 49.82643 37800 ft 477 kts 289°
2026-05-07 01:57 21.62172 49.76051 37795 ft 477 kts 289°
2026-05-07 01:58 21.64624 49.69425 37809 ft 477 kts 289°
2026-05-07 01:58 21.67076 49.62787 37805 ft 477 kts 289°
2026-05-07 01:59 21.69524 49.56151 37812 ft 477 kts 289°
2026-05-07 01:59 21.71971 49.49509 37818 ft 478 kts 289°
2026-05-07 02:00 21.74417 49.42861 37822 ft 478 kts 289°
2026-05-07 02:00 21.76843 49.36255 37828 ft 478 kts 289°
2026-05-07 02:01 21.79285 49.29599 37835 ft 477 kts 289°
2026-05-07 02:01 21.81721 49.22950 37833 ft 477 kts 289°
2026-05-07 02:02 21.84133 49.16356 37825 ft 476 kts 289°
2026-05-07 02:02 21.86554 49.09726 37828 ft 475 kts 289°
2026-05-07 02:03 21.88969 49.03105 37832 ft 475 kts 289°
2026-05-07 02:03 21.91381 48.96483 37828 ft 474 kts 289°
2026-05-07 02:04 21.93791 48.89857 37841 ft 474 kts 288°
2026-05-07 02:04 21.96177 48.83286 37835 ft 473 kts 288°
2026-05-07 02:05 21.98570 48.76688 37829 ft 472 kts 288°
2026-05-07 02:05 22.00958 48.70094 37828 ft 472 kts 288°
2026-05-07 02:06 22.03345 48.63493 37845 ft 472 kts 288°
2026-05-07 02:06 22.05728 48.56892 37842 ft 472 kts 288°
2026-05-07 02:07 22.08092 48.50335 37839 ft 472 kts 288°
2026-05-07 02:07 22.11657 48.40432 37838 ft 472 kts 288°
2026-05-07 02:08 22.14027 48.33828 37844 ft 472 kts 288°
2026-05-07 02:08 22.16397 48.27217 37846 ft 472 kts 288°
2026-05-07 02:09 22.18767 48.20598 37863 ft 472 kts 288°
2026-05-07 02:09 22.21130 48.13987 37859 ft 472 kts 288°
2026-05-07 02:10 22.23476 48.07415 37857 ft 472 kts 288°
2026-05-07 02:10 22.25833 48.00803 37859 ft 471 kts 288°
2026-05-07 02:11 22.28184 47.94196 37857 ft 471 kts 288°
2026-05-07 02:11 22.30523 47.87616 37858 ft 471 kts 288°
2026-05-07 02:12 22.32870 47.81005 37863 ft 470 kts 287°
2026-05-07 02:12 22.35212 47.74397 37865 ft 470 kts 287°
2026-05-07 02:13 22.37532 47.67841 37859 ft 470 kts 287°
2026-05-07 02:13 22.39862 47.61248 37861 ft 470 kts 287°
2026-05-07 02:14 22.42190 47.54650 37868 ft 470 kts 287°
2026-05-07 02:14 22.44515 47.48049 37876 ft 470 kts 287°
2026-05-07 02:15 22.46835 47.41451 37876 ft 469 kts 287°
2026-05-07 02:15 22.49151 47.34859 37880 ft 469 kts 287°
2026-05-07 02:16 22.51463 47.28265 37877 ft 468 kts 287°
2026-05-07 02:16 22.53772 47.21675 37881 ft 468 kts 287°
2026-05-07 02:17 22.56078 47.15088 37894 ft 468 kts 287°
2026-05-07 02:17 22.58379 47.08504 37891 ft 467 kts 286°
2026-05-07 02:18 22.60674 47.01925 37894 ft 467 kts 286°
2026-05-07 02:18 22.62948 46.95396 37893 ft 466 kts 286°
2026-05-07 02:19 22.65232 46.88832 37896 ft 465 kts 286°
2026-05-07 02:19 22.67511 46.82271 37893 ft 465 kts 286°
2026-05-07 02:20 22.69773 46.75748 37920 ft 464 kts 286°
2026-05-07 02:20 22.72037 46.69213 37917 ft 463 kts 286°
2026-05-07 02:21 22.74296 46.62679 37919 ft 462 kts 286°
2026-05-07 02:21 22.76168 46.57256 37914 ft 461 kts 286°
2026-05-07 02:22 22.78416 46.50737 37916 ft 461 kts 286°
2026-05-07 02:22 22.80643 46.44226 37932 ft 460 kts 284°
2026-05-07 02:23 22.82224 46.37560 37927 ft 454 kts 276°
2026-05-07 02:23 22.82912 46.30794 37912 ft 451 kts 271°
2026-05-07 02:24 22.83416 46.24004 37909 ft 452 kts 271°
2026-05-07 02:24 22.83923 46.17208 37922 ft 452 kts 271°
2026-05-07 02:25 22.84422 46.10403 37916 ft 453 kts 271°
2026-05-07 02:25 22.84914 46.03618 37917 ft 454 kts 271°
2026-05-07 02:26 22.85407 45.96787 37926 ft 454 kts 271°
2026-05-07 02:26 22.85897 45.89954 37930 ft 454 kts 271°
2026-05-07 02:27 22.86383 45.83125 37925 ft 454 kts 271°
2026-05-07 02:27 22.86867 45.76303 37926 ft 453 kts 271°
2026-05-07 02:28 22.87346 45.69493 37923 ft 452 kts 271°
2026-05-07 02:28 22.87822 45.62688 37919 ft 452 kts 271°
2026-05-07 02:29 22.88294 45.55899 37912 ft 452 kts 271°
2026-05-07 02:29 22.88760 45.49151 37911 ft 451 kts 270°
2026-05-07 02:30 22.89227 45.42348 37923 ft 451 kts 270°
2026-05-07 02:30 22.89690 45.35549 37934 ft 452 kts 270°
2026-05-07 02:31 22.90152 45.28749 37926 ft 452 kts 270°
2026-05-07 02:31 22.90607 45.21992 37933 ft 452 kts 270°
2026-05-07 02:32 22.91061 45.15197 37921 ft 452 kts 270°
2026-05-07 02:32 22.91515 45.08388 37924 ft 452 kts 270°
2026-05-07 02:33 22.91964 45.01571 37933 ft 453 kts 270°
2026-05-07 02:33 22.92411 44.94747 37938 ft 454 kts 270°
2026-05-07 02:34 22.92855 44.87911 37942 ft 454 kts 270°
2026-05-07 02:34 22.93293 44.81110 37943 ft 454 kts 270°
2026-05-07 02:35 22.93734 44.74267 37951 ft 455 kts 270°
2026-05-07 02:35 22.94464 44.67427 37948 ft 458 kts 277°
2026-05-07 02:36 22.96151 44.60716 37966 ft 463 kts 284°
2026-05-07 02:36 22.98213 44.54103 37960 ft 462 kts 283°
2026-05-07 02:37 23.00231 44.47536 37950 ft 461 kts 283°
2026-05-07 02:37 23.02258 44.40940 37962 ft 460 kts 283°
2026-05-07 02:38 23.04280 44.34365 37951 ft 458 kts 283°
2026-05-07 02:38 23.06293 44.27805 37940 ft 457 kts 283°
2026-05-07 02:39 23.08295 44.21267 37950 ft 455 kts 283°
2026-05-07 02:39 23.10289 44.14750 37946 ft 454 kts 283°
2026-05-07 02:40 23.12276 44.08245 37919 ft 453 kts 283°
2026-05-07 02:40 23.14256 44.01749 37950 ft 451 kts 283°
2026-05-07 02:41 23.16213 43.95318 37943 ft 450 kts 283°
2026-05-07 02:41 23.18176 43.88859 37937 ft 449 kts 283°
2026-05-07 02:42 23.20133 43.82407 37955 ft 448 kts 283°
2026-05-07 02:42 23.22080 43.75979 37948 ft 447 kts 283°
2026-05-07 02:43 23.24021 43.69561 37946 ft 446 kts 283°
2026-05-07 02:43 23.25954 43.63157 37952 ft 445 kts 283°
2026-05-07 02:44 23.27880 43.56768 37975 ft 444 kts 283°
2026-05-07 02:44 23.29788 43.50431 37976 ft 443 kts 283°
2026-05-07 02:45 23.31701 43.44064 37966 ft 442 kts 283°
2026-05-07 02:45 23.33603 43.37724 37993 ft 440 kts 283°
2026-05-07 02:46 23.35497 43.31401 37987 ft 439 kts 283°
2026-05-07 02:46 23.37388 43.25076 37978 ft 438 kts 283°
2026-05-07 02:47 23.39260 43.18808 37996 ft 437 kts 282°
2026-05-07 02:47 23.41134 43.12520 37998 ft 436 kts 282°
2026-05-07 02:48 23.42997 43.06243 38000 ft 435 kts 282°
2026-05-07 02:48 23.44855 42.99975 38004 ft 434 kts 282°
2026-05-07 02:49 23.46704 42.93723 37991 ft 433 kts 282°
2026-05-07 02:49 23.48547 42.87486 37982 ft 432 kts 282°
2026-05-07 02:50 23.50376 42.81281 37976 ft 432 kts 282°
2026-05-07 02:50 23.52211 42.75052 37972 ft 431 kts 282°
2026-05-07 02:51 23.54047 42.68819 37974 ft 431 kts 282°
2026-05-07 02:51 23.55878 42.62600 37972 ft 431 kts 282°
2026-05-07 02:52 23.57706 42.56377 37963 ft 431 kts 282°
2026-05-07 02:52 23.59522 42.50185 37959 ft 431 kts 282°
2026-05-07 02:53 23.61350 42.43943 37967 ft 432 kts 282°
2026-05-07 02:53 23.63177 42.37692 37974 ft 433 kts 281°
2026-05-07 02:54 23.65007 42.31422 37981 ft 434 kts 281°
2026-05-07 02:54 23.66836 42.25137 37982 ft 435 kts 281°
2026-05-07 02:55 23.68662 42.18837 38010 ft 436 kts 281°
2026-05-07 02:55 23.70486 42.12534 38017 ft 435 kts 281°
2026-05-07 02:56 23.72308 42.06229 37998 ft 435 kts 281°
2026-05-07 02:56 23.74122 41.99944 37990 ft 434 kts 281°
2026-05-07 02:57 23.75935 41.93662 38007 ft 433 kts 281°
2026-05-07 02:57 23.77735 41.87438 38000 ft 432 kts 281°
2026-05-07 02:58 23.79540 41.81180 37996 ft 431 kts 281°
2026-05-07 02:58 23.81337 41.74937 38002 ft 431 kts 280°
2026-05-07 02:59 23.83126 41.68701 38000 ft 429 kts 280°
2026-05-07 02:59 23.84908 41.62482 37991 ft 428 kts 280°
2026-05-07 03:00 23.86686 41.56267 37987 ft 428 kts 280°
2026-05-07 03:00 23.88441 41.50105 37992 ft 427 kts 280°
2026-05-07 03:01 23.90197 41.43912 37981 ft 426 kts 280°
2026-05-07 03:01 23.91953 41.37715 37976 ft 425 kts 280°
2026-05-07 03:02 23.93694 41.31567 37982 ft 425 kts 279°
2026-05-07 03:02 23.95445 41.25395 37979 ft 425 kts 279°
2026-05-07 03:03 23.97191 41.19227 37978 ft 424 kts 279°
2026-05-07 03:03 23.98931 41.13067 38003 ft 423 kts 279°
2026-05-07 03:04 24.00656 41.06950 37979 ft 423 kts 279°
2026-05-07 03:04 24.02391 41.00785 37976 ft 423 kts 279°
2026-05-07 03:05 24.04121 40.94632 37978 ft 423 kts 279°
2026-05-07 03:05 24.05848 40.88475 37961 ft 423 kts 279°
2026-05-07 03:06 24.07563 40.82355 37969 ft 423 kts 279°
2026-05-07 03:06 24.09283 40.76207 37967 ft 423 kts 279°
2026-05-07 03:07 24.11004 40.70044 37976 ft 423 kts 279°
2026-05-07 03:07 24.12723 40.63876 37979 ft 423 kts 279°
2026-05-07 03:08 24.14440 40.57704 37977 ft 424 kts 279°
2026-05-07 03:08 24.15953 40.52591 37980 ft 428 kts 283°
2026-05-07 03:09 24.18487 40.46647 37999 ft 436 kts 289°
2026-05-07 03:09 24.21326 40.40763 37993 ft 436 kts 289°
2026-05-07 03:10 24.24147 40.34862 37985 ft 437 kts 289°
2026-05-07 03:10 24.26967 40.28967 37968 ft 437 kts 289°
2026-05-07 03:11 24.29783 40.23074 37968 ft 437 kts 289°
2026-05-07 03:11 24.32584 40.17209 37972 ft 436 kts 289°
2026-05-07 03:12 24.35402 40.11299 37968 ft 436 kts 289°
2026-05-07 03:12 24.38216 40.05392 37978 ft 436 kts 289°
2026-05-07 03:13 24.41027 39.99481 37976 ft 437 kts 289°
2026-05-07 03:13 24.43821 39.93598 37971 ft 437 kts 289°
2026-05-07 03:14 24.46631 39.87678 37967 ft 437 kts 289°
2026-05-07 03:15 24.50841 39.78790 37973 ft 438 kts 289°
2026-05-07 03:15 24.53996 39.73040 37967 ft 449 kts 297°
2026-05-07 03:16 24.58293 39.67899 37967 ft 465 kts 309°
2026-05-07 03:16 24.63523 39.63543 37970 ft 474 kts 314°
2026-05-07 03:17 24.68863 39.59276 37975 ft 475 kts 314°
2026-05-07 03:17 24.74214 39.54990 37966 ft 476 kts 314°
2026-05-07 03:18 24.79574 39.50701 37965 ft 476 kts 314°
2026-05-07 03:18 24.84926 39.46414 37976 ft 476 kts 314°
2026-05-07 03:19 24.90287 39.42114 37954 ft 476 kts 314°
2026-05-07 03:19 24.95635 39.37820 37956 ft 476 kts 314°
2026-05-07 03:20 25.00993 39.33512 37960 ft 477 kts 314°
2026-05-07 03:20 25.06325 39.29223 37954 ft 477 kts 314°
2026-05-07 03:21 25.11698 39.24896 37967 ft 477 kts 314°
2026-05-07 03:21 25.17063 39.20560 37965 ft 476 kts 313°
2026-05-07 03:22 25.21864 39.15738 37967 ft 464 kts 303°
2026-05-07 03:22 25.25832 39.10215 37957 ft 454 kts 295°
2026-05-07 03:23 25.29248 39.04363 37977 ft 453 kts 295°
2026-05-07 03:23 25.32669 38.98548 37973 ft 453 kts 294°
2026-05-07 03:24 25.36099 38.92687 37956 ft 453 kts 295°
2026-05-07 03:24 25.39526 38.86818 37960 ft 453 kts 295°
2026-05-07 03:25 25.42940 38.80962 37946 ft 453 kts 294°
2026-05-07 03:25 25.46347 38.75107 37934 ft 452 kts 294°
2026-05-07 03:26 25.49730 38.69288 37932 ft 452 kts 294°
2026-05-07 03:26 25.53126 38.63440 37936 ft 451 kts 294°
2026-05-07 03:27 25.56518 38.57588 37928 ft 451 kts 294°
2026-05-07 03:27 25.59885 38.51775 37926 ft 450 kts 294°
2026-05-07 03:28 25.63283 38.45899 37920 ft 450 kts 294°
2026-05-07 03:28 25.66637 38.40094 37917 ft 450 kts 294°
2026-05-07 03:29 25.70014 38.34239 37919 ft 450 kts 294°
2026-05-07 03:29 25.73367 38.28420 37910 ft 450 kts 294°
2026-05-07 03:30 25.76733 38.22573 37907 ft 449 kts 294°
2026-05-07 03:30 25.80087 38.16735 37881 ft 449 kts 294°
2026-05-07 03:31 25.83446 38.10883 37881 ft 449 kts 294°
2026-05-07 03:31 25.86810 38.05016 37903 ft 450 kts 294°
2026-05-07 03:32 25.90181 37.99129 37927 ft 451 kts 294°
2026-05-07 03:32 25.93533 37.93266 37922 ft 453 kts 294°
2026-05-07 03:33 25.96910 37.87335 37952 ft 453 kts 293°
2026-05-07 03:33 25.99647 37.81143 37962 ft 441 kts 283°
2026-05-07 03:34 26.01324 37.74654 37962 ft 432 kts 274°
2026-05-07 03:34 26.02233 37.68078 37966 ft 430 kts 272°
2026-05-07 03:35 26.03131 37.61503 37964 ft 430 kts 272°
2026-05-07 03:35 26.04026 37.54976 37955 ft 429 kts 272°
2026-05-07 03:36 26.04911 37.48427 37947 ft 429 kts 272°
2026-05-07 03:36 26.05790 37.41860 37949 ft 429 kts 272°
2026-05-07 03:37 26.06671 37.35285 37953 ft 429 kts 272°
2026-05-07 03:37 26.07545 37.28715 37941 ft 429 kts 272°
2026-05-07 03:38 26.08414 37.22157 37947 ft 428 kts 272°
2026-05-07 03:38 26.09279 37.15610 37930 ft 427 kts 272°
2026-05-07 03:39 26.10140 37.09070 37919 ft 426 kts 272°
2026-05-07 03:39 26.10992 37.02581 37908 ft 426 kts 272°
2026-05-07 03:40 26.11846 36.96053 37906 ft 426 kts 272°
2026-05-07 03:40 26.12696 36.89527 37876 ft 426 kts 271°
2026-05-07 03:41 26.13542 36.83016 37890 ft 425 kts 271°
2026-05-07 03:41 26.14383 36.76511 37889 ft 425 kts 271°
2026-05-07 03:42 26.15224 36.69991 37890 ft 425 kts 271°
2026-05-07 03:42 26.16055 36.63511 37885 ft 425 kts 271°
2026-05-07 03:43 26.16889 36.56995 37886 ft 425 kts 271°
2026-05-07 03:43 26.18468 36.50556 37871 ft 440 kts 285°
2026-05-07 03:44 26.21688 36.44607 37852 ft 460 kts 300°
2026-05-07 03:44 26.26122 36.39399 37867 ft 467 kts 304°
2026-05-07 03:45 26.30645 36.34188 37872 ft 468 kts 304°
2026-05-07 03:45 26.35162 36.28971 37888 ft 468 kts 304°
2026-05-07 03:46 26.39677 36.23754 37902 ft 469 kts 304°
2026-05-07 03:46 26.44213 36.18509 37901 ft 469 kts 304°
2026-05-07 03:47 26.48740 36.13267 37902 ft 469 kts 304°
2026-05-07 03:47 26.53275 36.08010 37899 ft 469 kts 304°
2026-05-07 03:48 26.57773 36.02789 37900 ft 469 kts 304°
2026-05-07 03:48 26.62294 35.97535 37895 ft 469 kts 304°
2026-05-07 03:49 26.66815 35.92273 37914 ft 469 kts 304°
2026-05-07 03:49 26.71337 35.87007 37901 ft 468 kts 304°
2026-05-07 03:50 26.75852 35.81740 37900 ft 468 kts 304°
2026-05-07 03:50 26.80356 35.76480 37898 ft 468 kts 304°
2026-05-07 03:51 26.84830 35.71249 37899 ft 468 kts 304°
2026-05-07 03:51 26.89332 35.65981 37902 ft 468 kts 304°
2026-05-07 03:52 26.93835 35.60704 37903 ft 468 kts 304°
2026-05-07 03:52 26.98341 35.55417 37904 ft 468 kts 304°
2026-05-07 03:53 27.02838 35.50133 37932 ft 468 kts 304°
2026-05-07 03:53 27.07344 35.44831 37913 ft 470 kts 305°
2026-05-07 03:54 27.11834 35.39544 37909 ft 470 kts 305°
2026-05-07 03:54 27.16354 35.34215 37918 ft 470 kts 305°
2026-05-07 03:55 27.20867 35.28886 37921 ft 470 kts 305°
2026-05-07 03:55 27.25377 35.23554 37929 ft 470 kts 305°
2026-05-07 03:56 27.29890 35.18213 37921 ft 470 kts 305°
2026-05-07 03:56 27.34367 35.12907 37922 ft 470 kts 305°
2026-05-07 03:57 27.38874 35.07558 37924 ft 470 kts 305°
2026-05-07 03:57 27.43384 35.02199 37922 ft 472 kts 305°
2026-05-07 03:58 27.47134 34.97737 37923 ft 472 kts 305°
2026-05-07 03:58 27.51681 34.92367 37918 ft 476 kts 308°
2026-05-07 03:59 27.56540 34.87256 37925 ft 478 kts 309°
2026-05-07 03:59 27.61397 34.82126 37937 ft 478 kts 309°
2026-05-07 04:00 27.66218 34.77024 37937 ft 478 kts 309°
2026-05-07 04:00 27.71073 34.71881 37944 ft 479 kts 309°
2026-05-07 04:01 27.75932 34.66728 37939 ft 479 kts 309°
2026-05-07 04:01 27.80792 34.61566 37936 ft 479 kts 309°
2026-05-07 04:02 27.85644 34.56407 37946 ft 479 kts 309°
2026-05-07 04:02 27.90488 34.51251 37961 ft 478 kts 309°
2026-05-07 04:03 27.95328 34.46089 37969 ft 478 kts 310°
2026-05-07 04:03 28.00082 34.40863 37945 ft 473 kts 306°
2026-05-07 04:04 28.04250 34.35164 37939 ft 469 kts 303°
2026-05-07 04:04 28.08397 34.29443 37947 ft 469 kts 303°
2026-05-07 04:05 28.12516 34.23751 37948 ft 469 kts 303°
2026-05-07 04:05 28.16660 34.18006 37976 ft 471 kts 303°
2026-05-07 04:06 28.20808 34.12244 37982 ft 471 kts 303°
2026-05-07 04:06 28.24922 34.06522 38001 ft 471 kts 303°
2026-05-07 04:07 28.29068 34.00745 38005 ft 472 kts 303°
2026-05-07 04:07 28.33223 33.94949 38020 ft 473 kts 303°
2026-05-07 04:08 28.37370 33.89158 38004 ft 473 kts 303°
2026-05-07 04:08 28.41522 33.83356 38015 ft 472 kts 303°
2026-05-07 04:09 28.45637 33.77594 38005 ft 472 kts 303°
2026-05-07 04:09 28.49775 33.71792 38002 ft 471 kts 303°
2026-05-07 04:10 28.53900 33.65999 38011 ft 471 kts 304°
2026-05-07 04:10 28.58041 33.60191 37987 ft 473 kts 304°
2026-05-07 04:11 28.62183 33.54376 37993 ft 473 kts 304°
2026-05-07 04:11 28.66300 33.48582 37994 ft 473 kts 303°
2026-05-07 04:12 28.70443 33.42734 38005 ft 473 kts 303°
2026-05-07 04:12 28.74575 33.36894 38006 ft 473 kts 303°
2026-05-07 04:13 28.78708 33.31047 38007 ft 473 kts 303°
2026-05-07 04:13 28.82811 33.25232 38012 ft 473 kts 303°
2026-05-07 04:14 28.86941 33.19371 38023 ft 473 kts 303°
2026-05-07 04:14 28.91061 33.13514 38020 ft 474 kts 304°
2026-05-07 04:15 28.95193 33.07636 38019 ft 474 kts 304°
2026-05-07 04:15 28.99291 33.01795 38023 ft 473 kts 304°
2026-05-07 04:16 29.03408 32.95920 38033 ft 474 kts 304°
2026-05-07 04:16 29.07517 32.90049 37826 ft 470 kts 304°
2026-05-07 04:16 29.09552 32.87139 37576 ft 466 kts 304°
2026-05-07 04:17 29.11573 32.84245 37311 ft 465 kts 305°
2026-05-07 04:17 29.13597 32.81344 37054 ft 466 kts 305°
2026-05-07 04:17 29.15621 32.78442 36800 ft 467 kts 305°
2026-05-07 04:17 29.17650 32.75530 36526 ft 467 kts 305°
2026-05-07 04:18 29.19674 32.72624 35940 ft 467 kts 306°
2026-05-07 04:18 29.21661 32.69720 35091 ft 469 kts 302°
2026-05-07 04:18 29.23416 32.66565 34109 ft 472 kts 301°
2026-05-07 04:18 29.25160 32.63340 32782 ft 480 kts 301°
2026-05-07 04:19 29.26924 32.60079 31812 ft 481 kts 301°
2026-05-07 04:19 29.28686 32.56829 31016 ft 478 kts 301°
2026-05-07 04:19 29.30427 32.53620 30481 ft 469 kts 301°
2026-05-07 04:19 29.32137 32.50468 29957 ft 461 kts 301°
2026-05-07 04:20 29.33816 32.47370 29376 ft 453 kts 301°
2026-05-07 04:20 29.35466 32.44323 28808 ft 446 kts 301°
2026-05-07 04:20 29.37072 32.41357 28259 ft 439 kts 301°
2026-05-07 04:21 29.40274 32.35431 26471 ft 440 kts 301°
2026-05-07 04:21 29.41891 32.32433 25715 ft 439 kts 301°
2026-05-07 04:21 29.43463 32.29519 25163 ft 431 kts 301°
2026-05-07 04:21 29.45038 32.26597 24419 ft 430 kts 301°
2026-05-07 04:22 29.46606 32.23686 23756 ft 426 kts 301°
2026-05-07 04:22 29.48158 32.20805 23065 ft 421 kts 301°
2026-05-07 04:22 29.49685 32.17966 22365 ft 416 kts 301°
2026-05-07 04:22 29.51197 32.15154 21664 ft 411 kts 301°
2026-05-07 04:23 29.52694 32.12368 20973 ft 407 kts 301°
2026-05-07 04:23 29.54172 32.09615 20298 ft 403 kts 301°
2026-05-07 04:23 29.55634 32.06888 19641 ft 398 kts 301°
2026-05-07 04:23 29.57058 32.04232 19032 ft 394 kts 301°
2026-05-07 04:24 29.58488 32.01563 18393 ft 390 kts 301°
2026-05-07 04:24 29.59902 31.98922 17668 ft 386 kts 301°
2026-05-07 04:24 29.61301 31.96308 16964 ft 382 kts 301°
2026-05-07 04:24 29.62690 31.93710 16262 ft 379 kts 301°
2026-05-07 04:25 29.64066 31.91133 15572 ft 376 kts 301°
2026-05-07 04:25 29.65426 31.88587 14890 ft 373 kts 301°
2026-05-07 04:25 29.66781 31.86047 14225 ft 370 kts 301°
2026-05-07 04:25 29.68126 31.83525 13519 ft 367 kts 301°
2026-05-07 04:26 29.69453 31.81037 12818 ft 364 kts 302°
2026-05-07 04:26 29.70768 31.78567 12158 ft 360 kts 302°
2026-05-07 04:26 29.72067 31.76125 11488 ft 356 kts 302°
2026-05-07 04:26 29.73336 31.73739 10831 ft 352 kts 302°
2026-05-07 04:27 29.74522 31.71286 10208 ft 350 kts 296°
2026-05-07 04:27 29.75387 31.68698 9742 ft 342 kts 291°
2026-05-07 04:27 29.76177 31.66151 9326 ft 332 kts 291°
2026-05-07 04:27 29.76941 31.63675 8924 ft 324 kts 291°
2026-05-07 04:28 29.77680 31.61258 8459 ft 315 kts 291°
2026-05-07 04:28 29.78389 31.58927 8072 ft 303 kts 291°
2026-05-07 04:28 29.79071 31.56676 7682 ft 292 kts 291°
2026-05-07 04:28 29.79726 31.54501 7295 ft 283 kts 291°
2026-05-07 04:29 29.80359 31.52383 6928 ft 277 kts 291°
2026-05-07 04:29 29.80980 31.50288 6540 ft 276 kts 291°
2026-05-07 04:29 29.81602 31.48194 6205 ft 274 kts 292°
2026-05-07 04:29 29.82208 31.46141 5908 ft 272 kts 291°
2026-05-07 04:30 29.82807 31.44080 5653 ft 271 kts 291°
2026-05-07 04:30 29.83400 31.42031 5359 ft 268 kts 291°
2026-05-07 04:30 29.83981 31.39992 5056 ft 269 kts 291°
2026-05-07 04:30 29.84563 31.37950 4820 ft 268 kts 292°
2026-05-07 04:31 29.85137 31.35914 4552 ft 266 kts 292°
2026-05-07 04:31 29.85833 31.33942 4307 ft 265 kts 299°
2026-05-07 04:31 29.86664 31.32057 4107 ft 260 kts 301°
2026-05-07 04:31 29.87478 31.30229 3900 ft 253 kts 303°
2026-05-07 04:32 29.88604 31.28770 3695 ft 239 kts 331°
2026-05-07 04:32 29.90113 31.28149 3501 ft 227 kts 354°
2026-05-07 04:32 29.91633 31.27902 3404 ft 219 kts 354°
2026-05-07 04:32 29.93112 31.27626 3286 ft 212 kts 353°
2026-05-07 04:33 29.94538 31.27349 3196 ft 202 kts 353°
2026-05-07 04:33 29.95897 31.27085 3096 ft 195 kts 353°
2026-05-07 04:33 29.97224 31.26924 2996 ft 188 kts
2026-05-07 04:33 29.98450 31.27397 2897 ft 185 kts 32°
2026-05-07 04:34 29.99402 31.28299 2782 ft 175 kts 44°
2026-05-07 04:34 30.00218 31.29320 2743 ft 171 kts 47°
2026-05-07 04:34 30.00995 31.30361 2700 ft 171 kts 47°
2026-05-07 04:34 30.01782 31.31396 2698 ft 172 kts 47°
2026-05-07 04:35 30.02559 31.32431 2696 ft 167 kts 47°
2026-05-07 04:35 30.03292 31.33403 2577 ft 153 kts 47°
2026-05-07 04:35 30.03952 31.34278 2397 ft 136 kts 47°
2026-05-07 04:35 30.04559 31.35081 2204 ft 132 kts 48°
2026-05-07 04:36 30.05160 31.35881 2065 ft 131 kts 47°
2026-05-07 04:36 30.05756 31.36672 1878 ft 130 kts 47°
2026-05-07 04:36 30.06331 31.37457 1692 ft 130 kts 49°
2026-05-07 04:36 30.06918 31.38252 1471 ft 131 kts 47°
2026-05-07 04:37 30.07521 31.39036 1292 ft 130 kts 47°
2026-05-07 04:37 30.08116 31.39819 1068 ft 131 kts 47°
2026-05-07 04:37 30.08733 31.40610 821 ft 132 kts 48°
2026-05-07 04:37 30.09341 31.41411 576 ft 133 kts 47°
2026-05-07 04:38 30.09943 31.42205 387 ft 126 kts 49°
2026-05-07 04:38 30.10429 31.42854 377 ft 86 kts 50°
2026-05-07 04:38 30.10748 31.43281 379 ft 56 kts 49°
2026-05-07 04:38 30.10958 31.43562 378 ft 39 kts 49°
2026-05-07 04:39 30.11088 31.43735 380 ft 9 kts 49°
2026-05-07 04:39 30.11169 31.43838 379 ft 24 kts 45°
2026-05-07 04:39 30.11294 31.43950 377 ft 22 kts 32°
2026-05-07 04:39 30.11416 31.44022 379 ft 18 kts 23°
2026-05-07 04:40 30.11529 31.44077 379 ft 17 kts 23°
2026-05-07 04:40 30.11627 31.44092 379 ft 13 kts 327°
2026-05-07 04:40 30.11639 31.44004 379 ft 14 kts 235°
2026-05-07 04:40 30.11559 31.43896 379 ft 21 kts 229°
2026-05-07 04:41 30.11451 31.43755 379 ft 26 kts 229°
2026-05-07 04:41 30.11328 31.43592 379 ft 23 kts 229°
2026-05-07 04:41 30.11257 31.43498 379 ft 14 kts 232°
2026-05-07 04:41 30.11266 31.43400 379 ft 15 kts 315°
2026-05-07 04:42 30.11352 31.43313 379 ft 18 kts 320°
2026-05-07 04:42 30.11451 31.43216 379 ft 20 kts 319°
2026-05-07 04:42 30.11557 31.43111 379 ft 21 kts 319°
2026-05-07 04:42 30.11672 31.42997 379 ft 22 kts 319°
2026-05-07 04:43 30.11792 31.42879 379 ft 23 kts 319°
2026-05-07 04:43 30.11916 31.42756 379 ft 24 kts 319°
2026-05-07 04:43 30.12043 31.42630 377 ft 25 kts 319°
2026-05-07 04:43 30.12150 31.42524 379 ft 15 kts 319°
2026-05-07 04:44 30.12203 31.42426 379 ft 15 kts 262°
2026-05-07 04:44 30.12136 31.42310 379 ft 20 kts 229°
2026-05-07 04:44 30.12036 31.42179 379 ft 24 kts 229°
2026-05-07 04:44 30.11920 31.42025 379 ft 27 kts 229°
2026-05-07 04:45 30.11793 31.41856 380 ft 29 kts 229°
2026-05-07 04:45 30.11658 31.41678 380 ft 30 kts 229°
2026-05-07 04:45 30.11521 31.41493 380 ft 27 kts 230°
2026-05-07 04:45 30.11405 31.41340 380 ft 26 kts 228°
2026-05-07 04:46 30.11278 31.41174 380 ft 29 kts 229°
2026-05-07 04:46 30.11150 31.41001 380 ft 25 kts 230°
2026-05-07 04:46 30.11068 31.40889 380 ft 13 kts 230°
2026-05-07 04:46 30.10994 31.40791 379 ft 19 kts 228°
2026-05-07 04:47 30.10896 31.40664 379 ft 23 kts 228°
2026-05-07 04:47 30.10782 31.40515 379 ft 26 kts 229°
2026-05-07 04:47 30.10700 31.40406 379 ft 10 kts 229°
2026-05-07 04:47 30.10679 31.40347 379 ft 8 kts 284°
2026-05-07 04:48 30.10701 31.40309 379 ft 9 kts 329°
2026-05-07 04:48 30.10769 31.40337 379 ft 10 kts 47°
2026-05-07 04:48 30.10820 31.40403 379 ft 12 kts 49°
2026-05-07 04:48 30.10854 31.40447 379 ft 10 kts 39°
2026-05-07 04:49 30.10921 31.40437 379 ft 9 kts 303°
2026-05-07 04:49 30.10939 31.40412 379 ft 4 kts 331°
2026-05-07 04:49 30.10976 31.40406 379 ft 7 kts 11°
2026-05-07 04:49 30.10998 31.40412 379 ft 5 kts 16°
2026-05-07 04:50 30.11021 31.40420 379 ft 2 kts 17°
2026-05-07 04:50 30.11029 31.40423 379 ft 0 kts 17°